Flag for USA

Past Weather in Helena, Montana, USA — Yesterday and Last 2 Weeks

Now
77 °F

Sunny.


Feels Like: 78 °F
Forecast: 81 / 60 °F
Wind: 20 mph from West

Location: Helena Regional Airport

Current Time: Jul 12, 2020 at 11:34:12 am

Latest Report: Jul 12, 2020 at 10:53 am


Visibility: 10 mi

Pressure: 29.88 "Hg (25.93 "Hg at 1239m altitude)

Humidity: 29%

Dew Point: 42 °F

Location of HelenaLocation

Past Weather in Helena — Graph

°F

Helena Temperature Yesterday

Maximum temperature yesterday: 87 °F (at 4:53 pm)
Minimum temperature yesterday: 52 °F (at 4:53 am)
Average temperature yesterday: 72 °F

High & Low Weather Summary for the Past Weeks

 TemperatureHumidityPressure
High87 °F (Jul 11, 4:53 pm)90% (Jun 28, 11:53 pm)30.22 "Hg (Jun 28, 11:53 pm)
Low41 °F (Jun 30, 5:53 am)20% (Jul 3, 3:53 pm)29.61 "Hg (Jun 27, 10:53 pm)
Average63 °F55%29.91 "Hg
* Reported Jun 27 10:53 am — Jul 12 9:53 am, Helena. Weather by CustomWeather, © 2020

Note: Actual official high and low records may vary slightly from our data, if they occured in-between our weather recording intervals... More about our weather records

Helena Weather History for the Previous 24 Hours

Scroll right to see more
 ConditionsComfort  
Time TempWeatherWind HumidityBarometerVisibility
9:53 am
Sun, Jul 12
77 °FSunny.15 mph29%29.88 "Hg10 mi
9:38 am76 °FSunny.13 mph30%29.96 "Hg10 mi
7:53 am62 °FSunny.No wind60%29.93 "Hg10 mi
6:53 am67 °FSunny.5 mph45%29.93 "Hg10 mi
5:53 am60 °FSunny.5 mph56%29.94 "Hg10 mi
4:53 am57 °FClear.8 mph62%29.89 "Hg10 mi
3:53 am60 °FClear.No wind60%29.87 "Hg10 mi
2:53 am59 °FClear.3 mph60%29.87 "Hg10 mi
1:53 am66 °FClear.No wind47%29.88 "Hg10 mi
12:53 am65 °FClear.No wind49%29.90 "Hg10 mi
11:53 pm
Sat, Jul 11
67 °FClear.7 mph45%29.91 "Hg10 mi
10:53 pm68 °FClear.3 mph44%29.93 "Hg10 mi
9:53 pm78 °FClear.3 mph27%29.93 "Hg10 mi
8:53 pm81 °FSunny.3 mph29%29.93 "Hg10 mi
7:53 pm84 °FSunny.8 mph24%29.94 "Hg10 mi
6:53 pm86 °FSunny.8 mph21%29.96 "Hg10 mi
5:53 pm86 °FSunny.9 mph23%30.00 "Hg10 mi
4:53 pm87 °FSunny.7 mph23%30.01 "Hg10 mi
3:53 pm86 °FSunny.6 mph25%30.03 "Hg10 mi
2:53 pm84 °FSunny.No wind26%30.07 "Hg10 mi
1:53 pm82 °FSunny.7 mph28%30.09 "Hg10 mi
12:53 pm80 °FSunny.5 mph29%30.12 "Hg10 mi
11:53 am76 °FSunny.9 mph43%30.14 "Hg10 mi
Weather by CustomWeather, © 2020

See weather overview